Torna al catalogo

METEOR 2-12 DEB

AttivoPO
NORAD 45518·DEBRIS·🇷🇺 Russia

Lanciato Feb 6, 1985 da Plesetsk Cosmodrome

Loading…

Prossimi Passaggi (prossime 24 ore)

TLE

AggiornatoSource: Space-Track

Epoca: Sep 14, 2026, 03:07 UTC

1 45518U 85013D   26257.13043346  .00001779  00000-0  10789-2 0  9997
2 45518  82.5271 195.5895 0022133 163.9035 196.2845 14.05753172133401

Traccia METEOR 2-12 DEB in tempo reale con AllMySat

Download on the App Store